Wetbulb
68.53 70.13 71.33 74.76 74.89 73.39 73.28 74.85 72.97 74.62 74.69 73.31 72.47 71.87 72.13 71.32 71.25 71.30 74.47 74.45 73.32 74.10 72.79 72.84 72.32 72.58 72.25 71.64 70.85 70.83 69.50 70.18 70.10 68.59 66.02 67.90 68.14 68.26 69.03 69.51 69.53 70.87 72.56
66.19 68.02 69.56 71.26 73.85 73.97 73.60 73.76 73.66 74.61 74.19 74.07 73.18 72.67 72.96 71.40 71.22 71.61 73.93 75.35 74.52 73.93 72.93 72.46 71.62 72.54 72.09 71.28 71.08 69.98 68.80 69.52 68.84 65.42 65.44 62.74 65.19 68.43 69.32 69.65 69.40 68.70 70.68
63.83 66.13 68.08 68.17 69.76 72.79 73.66 74.11 74.43 74.82 74.16 73.54 73.22 73.05 73.24 71.91 70.84 71.39 71.50 74.08 73.95 73.77 73.10 72.92 71.04 71.93 71.02 70.84 71.25 70.53 68.94 65.74 67.07 67.34 64.06 60.69 60.56 63.18 66.24 68.60 69.08 68.33 68.94
64.20 64.68 65.07 66.25 67.87 69.80 72.68 74.62 74.60 75.67 74.67 74.66 72.80 72.00 71.74 70.89 71.30 71.27 72.00 73.35 74.18 73.88 73.88 73.11 72.00 71.27 72.42 70.71 71.42 71.16 70.36 68.64 66.78 67.40 68.42 65.92 65.76 62.45 62.43 66.51 68.22 69.45 68.70
63.12 64.05 64.65 66.43 66.71 69.52 75.33 74.67 73.91 72.83 73.07 73.45 72.19 72.15 71.32 72.02 71.89 70.82 70.00 71.06 73.70 74.17 74.01 73.51 72.48 71.05 72.21 71.77 71.40 70.08 70.37 70.25 67.95 68.67 68.43 66.21 65.38 66.15 64.58 62.30 65.21 68.38 67.96
63.41 63.88 65.42 66.86 66.22 67.58 70.83 73.69 72.72 72.54 73.25 72.57 72.44 70.84 70.05 70.65 70.32 70.92 70.77 71.26 72.04 73.55 73.79 73.84 73.60 72.20 71.96 71.75 72.00 71.40 70.66 70.27 68.74 68.56 69.14 68.41 66.22 66.31 66.22 64.63 64.96 65.56 67.91
62.68 63.10 63.17 63.89 64.98 65.80 67.17 67.74 71.08 73.14 74.03 72.71 72.58 72.68 71.54 70.73 70.53 70.24 70.83 70.58 71.82 71.96 72.41 73.21 73.16 73.39 73.13 72.50 72.94 72.87 72.27 71.56 69.96 69.74 69.42 70.25 69.42 69.25 68.18 65.95 65.44 66.47 66.99
61.66 61.31 63.03 63.36 64.20 65.04 66.40 67.14 66.53 67.70 72.86 73.19 73.17 73.10 73.12 72.49 71.51 71.44 71.33 71.53 71.85 72.19 73.43 72.59 73.33 73.53 73.19 73.48 72.77 73.11 73.17 72.91 72.55 71.38 71.84 70.98 71.16 70.49 69.66 67.64 66.31 64.29 64.94
60.76 61.22 61.96 62.59 62.58 63.04 63.91 65.17 65.76 67.66 68.39 69.54 71.55 72.82 73.15 72.59 72.19 70.25 71.68 71.88 72.29 72.69 72.42 73.68 72.95 73.09 73.01 73.23 73.26 72.12 72.26 72.78 72.69 72.76 72.63 71.84 71.74 71.67 71.17 70.40 68.96 67.21 63.36
59.58 59.99 60.96 61.99 61.87 62.51 63.95 65.01 65.13 64.51 67.59 70.00 70.05 71.17 71.88 72.98 73.00 73.05 71.72 72.01 72.56 72.29 72.61 72.56 73.14 72.98 73.15 73.21 72.85 73.02 72.79 72.36 72.92 73.14 72.66 72.18 71.87 71.87 71.69 71.15 70.23 68.96 67.79
59.03 59.70 60.67 61.54 62.66 63.78 63.67 63.94 64.44 64.95 65.75 66.15 67.28 69.94 69.77 70.46 72.72 72.78 72.79 72.86 72.73 72.62 72.03 72.31 72.61 72.35 72.45 72.89 72.19 72.41 72.16 71.34 71.74 72.81 72.18 71.92 72.25 71.75 71.31 71.01 70.46 69.63 68.45
59.47 59.96 60.93 61.57 61.94 62.00 62.18 62.04 62.78 64.07 65.43 65.93 67.02 67.09 67.11 68.70 69.70 70.35 72.28 72.87 72.44 73.01 72.37 72.30 72.04 69.46 68.43 66.37 65.35 65.03 68.24 70.94 70.65 71.30 71.78 71.87 72.50 71.62 71.54 70.33 70.05 70.00 69.97
58.60 60.38 60.58 61.24 60.94 60.63 60.45 60.87 61.26 61.54 64.18 65.12 65.76 66.63 66.38 66.94 67.21 69.11 70.08 70.69 71.90 71.86 71.98 71.46 70.87 68.31 67.66 66.50 66.52 65.88 64.63 66.50 70.25 70.73 71.66 71.59 71.41 71.31 71.43 71.16 70.19 70.00 70.00
59.65 60.00 59.40 59.28 59.18 59.41 58.92 59.92 60.39 61.66 62.37 63.43 63.13 64.53 65.94 66.05 66.33 67.26 69.33 70.08 69.68 68.89 70.72 69.71 69.78 69.08 66.98 65.76 62.85 63.09 64.26 65.21 68.38 71.56 71.35 71.90 71.56 71.35 71.36 71.29 70.68 70.08 69.64
59.11 58.77 58.09 57.28 57.43 57.67 57.96 59.48 59.98 60.98 61.84 61.95 62.28 63.72 65.04 65.87 67.12 67.80 68.70 69.25 69.31 69.06 69.68 69.79 70.00 69.01 65.80 65.36 63.29 63.73 64.10 64.98 66.49 68.19 65.89 66.69 71.34 70.70 70.66 71.68 71.12 70.69 70.45
59.06 59.01 58.55 57.98 57.10 57.47 57.78 59.21 59.57 60.51 61.62 61.83 63.09 63.97 63.90 65.29 65.23 66.65 68.19 68.51 68.31 68.48 69.04 68.95 69.24 67.25 67.08 64.85 64.50 66.20 65.80 65.75 65.41 65.11 65.47 65.04 65.09 68.12 67.19 67.76 69.31 71.19 70.88
58.41 57.96 57.86 57.78 58.06 57.42 58.66 58.24 59.54 61.09 61.31 62.17 62.29 63.30 62.76 62.67 63.52 65.11 66.72 67.77 67.41 67.75 67.68 67.92 68.36 69.66 69.57 63.22 62.51 64.27 66.36 67.30 66.62 64.66 64.49 64.76 67.35 65.45 66.30 68.23 66.74 67.66 67.81
58.78 58.55 57.54 57.29 57.35 57.30 57.91 59.32 58.75 60.98 61.58 60.29 60.56 61.81 62.46 61.90 62.34 63.44 64.32 65.23 65.17 65.26 65.85 66.45 66.67 66.94 69.12 63.70 60.99 62.80 65.89 66.11 64.82 65.87 64.26 64.17 64.48 66.03 68.03 69.58 68.65 68.45 68.06
58.89 58.61 58.30 57.42 57.15 57.31 58.44 58.46 57.38 60.26 59.81 59.21 60.33 61.77 62.15 61.24 62.64 62.14 62.88 64.46 64.35 64.85 65.39 66.29 65.50 65.33 65.58 58.34 59.39 61.85 65.99 65.91 67.19 67.72 69.49 68.91 68.12 66.63 64.42 69.02 67.46 67.34 68.00
59.88 58.98 58.53 57.62 56.79 56.90 57.59 57.81 59.04 59.35 58.88 59.64 60.71 62.08 62.21 62.17 62.61 63.10 62.49 63.74 65.27 64.94 65.71 65.98 65.48 62.79 65.26 57.25 57.64 60.54 66.30 65.60 65.87 66.71 67.23 62.33 66.53 60.72 59.09 67.07 67.73 66.85 66.83
59.90 59.56 58.23 56.78 56.34 56.18 55.35 55.79 58.31 54.66 59.32 60.68 61.42 62.20 62.29 62.64 62.73 60.99 60.66 60.15 63.01 64.14 64.63 64.08 64.33 62.70 62.06 61.12 56.19 55.26 64.83 64.89 64.80 65.36 66.25 65.19 58.80 57.09 56.73 58.18 65.81 65.02 65.73
58.51 58.50 57.18 56.73 57.39 56.57 55.93 55.32 56.57 58.69 59.40 60.31 61.72 61.66 61.43 62.67 63.85 61.65 60.97 62.46 63.64 63.90 63.79 62.88 62.74 63.09 61.44 57.07 56.37 54.92 57.05 61.52 64.46 64.58 65.89 62.29 53.29 52.20 54.01 59.09 55.28 57.09 61.24
59.34 57.83 55.34 56.60 57.46 58.17 57.51 54.90 56.78 59.75 59.20 60.25 61.05 61.52 62.10 62.30 62.39 61.29 60.09 61.36 61.92 63.07 62.36 63.38 62.60 62.50 62.88 60.87 53.45 55.28 56.19 57.64 63.71 62.47 58.86 53.57 50.75 51.47 55.82 54.01 54.68 56.73 62.14
57.36 58.29 57.37 57.13 57.06 57.66 59.49 57.03 58.62 59.21 59.51 58.81 59.74 61.15 61.62 60.76 61.54 61.13 59.01 58.01 59.40 60.00 61.88 61.73 61.11 57.93 56.10 56.90 59.76 63.04 62.72 59.75 60.35 58.96 60.84 59.03 58.50 58.36 59.63 57.66 56.91 62.06 62.26
58.56 58.43 57.41 56.81 56.93 59.69 59.38 59.44 59.54 59.36 58.52 59.50 59.69 60.34 59.73 61.24 58.88 54.60 52.31 55.73 51.68 50.25 58.09 57.04 57.31 56.05 54.45 52.48 46.89 49.22 54.10 55.91 50.55 56.65 60.00 60.52 60.73 60.77 60.74 61.50 61.51 61.41 62.26
58.60 57.85 57.24 56.63 57.08 58.86 58.74 59.25 58.32 57.91 58.44 59.10 59.22 59.43 58.14 57.01 61.12 59.55 56.57 49.17 47.94 46.13 44.35 47.14 53.40 51.33 47.30 45.47 45.89 44.27 44.43 44.75 46.20 57.36 58.39 58.96 59.75 59.89 60.03 59.93 61.40 62.54 62.50
MSLP
1007.47 1007.57 1007.93 1008.01 1008.34 1009.04 1009.45 1009.81 1010.74 1011.10 1011.86 1012.60 1013.06 1013.46 1013.44 1013.54 1013.34 1013.47 1013.71 1014.24 1014.49 1014.86 1015.17 1015.38 1015.67 1016.02 1016.45 1016.81 1017.12 1017.35 1017.81 1018.05 1018.09 1018.35 1018.48 1018.28 1017.89 1017.77 1017.68 1017.49 1017.54 1017.38 1017.40
1008.17 1008.37 1008.55 1008.69 1009.04 1009.17 1009.46 1009.84 1010.20 1010.61 1011.26 1011.72 1012.38 1012.76 1013.20 1013.17 1013.13 1012.92 1013.19 1013.38 1013.90 1014.20 1014.46 1014.84 1015.24 1015.52 1015.99 1016.29 1016.57 1016.89 1017.41 1017.49 1017.62 1018.19 1018.45 1018.50 1018.12 1017.55 1017.36 1017.20 1017.12 1017.01 1016.88
1008.52 1008.86 1008.99 1009.02 1009.07 1009.31 1009.38 1009.60 1009.92 1010.28 1010.80 1011.28 1011.82 1012.32 1012.75 1013.03 1013.04 1012.80 1012.88 1013.15 1013.17 1013.61 1013.97 1014.31 1014.68 1015.04 1015.30 1015.65 1015.97 1016.24 1016.77 1017.06 1017.03 1017.21 1017.77 1018.36 1018.07 1017.64 1016.95 1016.72 1016.60 1016.56 1016.65
1008.27 1008.82 1009.21 1009.40 1009.38 1009.19 1009.01 1009.36 1009.52 1009.89 1010.41 1010.67 1011.24 1011.80 1012.22 1012.51 1012.49 1012.39 1012.36 1012.66 1012.80 1013.00 1013.34 1013.62 1013.90 1014.47 1014.84 1015.08 1015.20 1015.50 1015.89 1016.45 1016.84 1016.92 1016.90 1017.11 1017.48 1017.67 1017.54 1016.64 1016.43 1016.27 1016.38
1008.02 1008.61 1008.94 1009.16 1009.32 1009.40 1009.43 1009.57 1009.99 1010.14 1010.48 1010.70 1011.21 1011.64 1011.65 1011.63 1011.79 1011.96 1012.01 1011.91 1012.18 1012.22 1012.50 1012.89 1013.22 1013.90 1014.37 1014.67 1014.87 1015.13 1015.51 1015.76 1016.24 1016.44 1016.71 1016.80 1017.25 1017.40 1017.67 1017.63 1016.89 1016.59 1016.14
1007.78 1008.24 1008.45 1008.78 1008.90 1009.18 1009.58 1009.95 1010.25 1010.32 1010.29 1010.51 1010.77 1011.35 1011.36 1011.49 1011.58 1011.60 1011.66 1011.38 1011.30 1011.48 1011.53 1011.95 1012.59 1012.89 1013.43 1013.97 1014.29 1014.47 1014.85 1015.13 1015.48 1015.81 1016.29 1016.46 1016.71 1016.95 1017.18 1017.39 1017.19 1017.10 1016.39
1007.72 1008.13 1008.56 1008.71 1008.73 1008.93 1009.15 1009.52 1009.94 1010.22 1010.19 1010.29 1010.55 1010.65 1010.83 1010.96 1010.98 1011.07 1011.03 1010.69 1010.61 1010.56 1010.84 1011.18 1011.69 1012.12 1012.51 1012.85 1013.29 1013.72 1013.96 1014.24 1014.60 1015.08 1015.32 1015.59 1015.84 1016.07 1016.22 1016.72 1016.86 1016.91 1016.68
1007.58 1007.98 1008.47 1008.64 1008.84 1008.89 1008.92 1009.11 1009.28 1009.46 1009.53 1009.64 1009.77 1009.94 1010.15 1010.37 1010.45 1010.34 1010.30 1010.12 1009.82 1010.01 1009.88 1010.13 1010.34 1010.94 1011.39 1011.76 1012.06 1012.45 1012.92 1013.33 1013.73 1014.10 1014.42 1014.80 1014.94 1015.24 1015.54 1015.84 1016.32 1016.78 1016.62
1007.72 1008.30 1008.62 1008.92 1009.15 1009.37 1009.66 1009.87 1009.92 1009.67 1009.31 1008.98 1008.91 1009.01 1009.12 1009.35 1009.44 1009.67 1009.58 1009.26 1009.08 1008.98 1009.13 1009.24 1009.31 1009.30 1009.75 1010.26 1010.76 1011.25 1011.65 1012.25 1012.66 1012.96 1013.34 1013.79 1014.13 1014.43 1014.74 1015.08 1015.32 1015.90 1016.37
1008.10 1008.46 1008.87 1009.22 1009.54 1009.82 1010.18 1010.14 1010.30 1010.39 1010.01 1009.51 1009.15 1008.74 1008.48 1008.28 1008.32 1008.45 1008.49 1008.50 1008.36 1008.15 1008.08 1008.08 1008.01 1007.65 1008.02 1008.74 1009.79 1010.40 1010.80 1011.11 1011.62 1012.16 1012.56 1012.88 1013.28 1013.72 1014.07 1014.25 1014.48 1014.89 1015.27
1008.41 1008.72 1009.08 1009.45 1009.96 1010.25 1010.45 1010.52 1010.42 1010.26 1009.84 1009.48 1009.11 1008.68 1008.34 1007.90 1007.42 1007.44 1007.51 1007.50 1007.49 1007.42 1007.39 1007.35 1007.02 1007.14 1007.62 1007.91 1008.27 1009.17 1010.13 1010.83 1010.95 1011.26 1011.75 1011.87 1012.29 1012.81 1013.32 1013.55 1013.64 1013.92 1014.28
1008.51 1009.03 1009.58 1010.05 1010.59 1011.05 1011.13 1011.28 1011.16 1010.89 1010.42 1009.75 1009.17 1008.68 1008.32 1007.77 1007.16 1006.89 1006.68 1006.64 1006.62 1006.77 1006.87 1006.72 1006.55 1007.10 1007.94 1008.32 1006.52 1009.39 1011.42 1010.43 1010.87 1010.85 1011.02 1011.07 1011.30 1011.79 1012.27 1012.88 1012.91 1012.96 1013.13
1008.77 1009.43 1010.05 1010.91 1011.27 1011.66 1011.80 1011.70 1011.54 1011.13 1010.58 1010.02 1009.42 1008.65 1007.95 1007.35 1006.71 1006.38 1006.19 1006.12 1005.95 1005.96 1006.19 1006.27 1006.12 1006.30 1008.15 1008.41 1006.24 1007.62 1011.10 1010.70 1010.05 1010.33 1010.28 1010.14 1010.58 1010.89 1011.09 1011.82 1012.34 1012.41 1012.41
1009.23 1010.30 1010.88 1011.45 1011.73 1011.90 1011.94 1011.83 1011.60 1011.22 1010.59 1009.93 1009.29 1008.51 1007.66 1006.85 1006.12 1005.59 1005.51 1005.44 1005.33 1005.51 1005.52 1005.78 1005.98 1006.74 1006.74 1005.81 1007.34 1009.12 1009.75 1009.68 1009.59 1009.70 1009.46 1008.98 1009.42 1009.87 1010.11 1010.60 1011.25 1011.62 1012.00
1009.87 1010.44 1011.05 1011.45 1011.60 1011.68 1011.76 1011.75 1011.61 1011.16 1010.65 1010.01 1009.14 1008.32 1007.42 1006.49 1005.78 1005.29 1004.97 1004.73 1004.60 1004.64 1004.61 1004.83 1005.38 1005.68 1006.16 1006.14 1005.43 1006.33 1007.25 1008.38 1008.82 1009.10 1008.81 1008.58 1008.65 1009.16 1009.35 1009.67 1010.26 1010.68 1011.22
1010.07 1010.60 1011.04 1011.24 1011.29 1011.51 1011.74 1011.67 1011.48 1011.00 1010.49 1009.79 1008.87 1008.10 1007.47 1006.66 1006.05 1005.35 1004.56 1004.04 1003.87 1003.76 1003.76 1003.97 1004.50 1005.08 1005.26 1005.34 1005.76 1006.15 1007.21 1007.03 1007.90 1008.11 1007.90 1007.11 1007.93 1008.42 1008.94 1008.93 1009.24 1009.68 1010.15
1010.23 1010.61 1011.06 1011.22 1011.19 1011.49 1011.60 1011.61 1011.25 1010.78 1010.21 1009.63 1008.89 1008.14 1007.36 1006.68 1005.79 1004.90 1004.09 1003.34 1003.16 1003.03 1003.08 1003.21 1003.59 1004.11 1004.41 1004.67 1004.90 1005.43 1006.42 1006.20 1006.52 1006.93 1007.16 1007.22 1006.76 1006.95 1008.02 1008.72 1008.68 1008.58 1008.90
1010.10 1010.61 1010.88 1011.02 1011.30 1011.37 1011.41 1011.35 1011.05 1010.46 1009.92 1009.51 1008.89 1008.20 1007.34 1006.43 1005.49 1004.56 1003.88 1003.12 1002.78 1002.74 1002.84 1002.93 1003.03 1003.43 1003.67 1004.02 1004.51 1005.09 1005.51 1006.03 1006.16 1006.31 1006.04 1006.11 1005.73 1005.09 1006.50 1008.17 1008.51 1008.40 1008.62
1009.74 1010.11 1010.41 1010.75 1010.93 1011.25 1011.37 1011.36 1010.91 1010.29 1009.74 1009.40 1008.68 1008.02 1007.18 1006.16 1004.75 1003.71 1003.50 1003.46 1002.95 1002.73 1002.66 1002.70 1002.92 1003.16 1003.51 1003.66 1003.84 1004.61 1005.29 1005.75 1005.95 1006.03 1005.91 1006.23 1005.57 1005.36 1006.40 1007.94 1007.71 1007.97 1008.14
1009.30 1009.82 1010.19 1010.41 1010.77 1011.06 1011.15 1011.15 1010.76 1010.12 1009.63 1009.08 1008.71 1008.03 1007.19 1006.03 1004.24 1003.07 1003.59 1003.55 1003.01 1002.78 1002.64 1002.54 1002.76 1003.00 1003.36 1003.94 1004.23 1004.19 1004.61 1005.03 1005.33 1005.19 1005.31 1005.33 1005.24 1005.58 1005.88 1006.26 1006.64 1007.32 1007.57
1009.17 1009.61 1010.05 1010.54 1010.82 1010.91 1010.95 1010.95 1010.66 1009.89 1009.19 1008.71 1008.26 1007.59 1006.93 1005.98 1005.29 1004.26 1003.61 1003.40 1002.71 1002.54 1002.95 1003.07 1003.27 1003.53 1003.58 1004.09 1004.27 1004.64 1004.54 1004.86 1004.83 1005.03 1005.27 1005.41 1005.40 1005.76 1005.72 1005.88 1006.18 1006.53 1007.22
1009.29 1009.58 1010.04 1010.41 1010.62 1010.85 1010.86 1010.70 1010.33 1009.62 1008.63 1008.30 1007.63 1006.83 1006.23 1005.76 1005.37 1004.91 1004.25 1002.92 1002.87 1003.11 1002.69 1003.93 1004.05 1004.14 1004.34 1004.71 1004.85 1004.91 1004.78 1004.80 1004.94 1004.84 1005.26 1005.86 1005.99 1006.09 1006.16 1006.64 1006.78 1006.87 1007.12
1009.02 1009.61 1009.94 1010.24 1010.57 1010.55 1010.52 1010.49 1009.96 1009.32 1008.42 1008.08 1007.44 1006.74 1006.01 1005.46 1005.57 1005.27 1005.18 1004.32 1004.18 1003.99 1004.27 1004.06 1004.20 1004.70 1004.87 1005.06 1004.97 1005.15 1005.17 1004.97 1005.19 1005.37 1005.74 1006.10 1006.64 1006.61 1006.52 1007.18 1007.16 1007.31 1007.61
1009.03 1009.54 1009.89 1010.16 1010.36 1010.28 1010.17 1009.88 1009.63 1009.21 1008.63 1008.10 1007.51 1006.65 1005.85 1005.71 1005.52 1005.68 1005.55 1005.27 1004.85 1004.79 1004.79 1004.88 1005.28 1005.50 1005.57 1005.80 1005.78 1005.75 1005.93 1005.88 1006.00 1006.07 1006.20 1006.21 1006.09 1006.20 1006.48 1007.04 1007.02 1007.42 1007.80
1008.98 1009.51 1009.83 1010.12 1010.16 1009.99 1009.71 1009.57 1009.27 1009.04 1008.53 1007.88 1007.36 1006.67 1005.98 1005.94 1006.05 1006.52 1006.75 1006.41 1006.20 1006.25 1005.57 1005.43 1005.62 1006.06 1006.33 1006.87 1007.07 1006.76 1006.73 1006.73 1006.72 1006.23 1006.29 1006.48 1006.49 1006.50 1006.68 1006.87 1007.04 1007.49 1007.58
1009.14 1009.59 1009.94 1010.14 1010.01 1009.82 1009.33 1009.16 1008.83 1008.72 1008.41 1008.18 1007.32 1006.91 1006.59 1006.27 1006.33 1006.56 1007.02 1007.06 1006.70 1006.37 1005.93 1005.70 1005.51 1006.45 1006.67 1006.96 1007.19 1007.18 1006.91 1006.77 1006.36 1006.10 1006.32 1006.39 1006.36 1006.25 1006.34 1006.74 1006.87 1007.15 1007.44
Wind_Speed
8 9 8 4 12 10 11 14 13 15 12 6 7 4 7 4 4 5 9 11 11 11 10 7 7 6 8 9 10 6 6 6 5 3 3 4 7 7 7 5 5 6 8
8 8 8 7 3 12 11 8 10 15 13 10 8 7 6 4 3 4 6 13 13 13 12 10 7 9 8 8 9 9 5 7 5 4 2 2 4 7 7 7 8 8 5
9 7 7 8 6 7 11 11 11 14 12 11 5 3 3 4 4 6 3 8 13 13 13 11 7 6 7 8 6 7 7 5 5 6 5 1 5 1 4 10 9 6 4
9 8 7 7 8 8 7 9 12 12 13 13 10 10 10 11 8 8 9 7 12 13 12 11 10 7 6 7 7 6 5 4 5 2 4 4 3 3 4 3 3 5 5
11 9 8 6 4 6 5 5 4 3 5 8 6 7 11 9 8 4 7 10 12 14 14 12 12 10 6 7 6 5 6 5 4 3 2 4 1 3 3 4 3 3 4
11 9 8 8 5 5 5 1 5 7 7 7 8 9 9 9 7 11 7 9 10 11 16 15 13 14 11 7 8 8 8 9 6 5 5 4 5 5 3 4 4 3 4
10 9 8 6 6 6 6 4 4 6 7 7 7 9 11 11 12 11 11 9 9 10 14 14 14 11 13 13 10 11 11 11 10 10 9 8 6 3 4 3 3 4 3
8 8 8 5 5 5 5 6 8 8 9 9 9 9 10 8 9 12 9 11 11 9 14 16 17 17 16 14 14 10 11 10 10 12 10 8 9 5 4 5 4 2 4
8 10 9 7 7 7 8 8 8 8 6 8 7 8 10 10 10 10 12 12 15 12 11 16 18 20 20 19 17 13 14 12 11 12 12 9 8 5 6 6 5 6 6
9 8 7 7 7 8 9 11 12 9 7 7 7 6 8 10 10 9 10 12 14 17 17 13 18 19 20 20 18 13 13 14 10 9 11 11 7 8 7 7 6 6 8
8 7 7 8 8 9 9 11 13 16 16 11 7 8 10 9 10 10 10 11 11 13 14 17 16 17 16 18 17 15 12 12 12 11 11 13 12 9 8 7 6 7 5
7 6 8 8 8 8 9 10 11 12 13 14 9 9 8 10 10 7 9 10 10 9 10 13 17 4 6 6 2 6 10 10 11 13 13 13 9 12 10 7 9 9 8
5 7 8 9 7 7 6 7 9 11 12 12 13 12 11 8 8 7 8 8 8 8 7 6 7 10 9 2 8 11 14 14 9 12 13 13 11 12 10 9 10 8 7
7 10 8 7 6 5 5 6 10 11 11 11 13 13 13 11 10 9 9 11 8 7 7 6 7 12 8 9 6 12 17 17 13 12 11 12 13 14 13 11 12 8 7
10 8 7 5 4 5 5 6 8 10 11 12 12 12 11 10 8 10 10 8 8 8 9 8 9 13 14 13 16 20 21 17 15 11 6 4 7 14 15 10 12 10 10
7 7 6 4 4 5 5 6 9 10 11 12 12 10 11 11 12 12 13 9 8 9 9 9 12 16 12 19 23 18 17 16 14 14 11 10 7 7 15 18 16 14 13
7 6 4 3 5 5 4 6 8 10 9 11 11 11 11 11 13 12 15 9 8 8 9 9 8 14 14 17 20 20 12 8 7 8 12 12 7 9 10 15 19 19 18
6 5 3 3 4 4 6 6 8 9 7 10 12 13 12 12 11 12 11 6 4 6 5 6 6 7 11 16 19 22 15 9 8 8 7 6 9 5 8 17 14 12 9
7 6 5 3 4 4 6 6 8 8 6 9 12 14 13 13 16 15 6 8 5 5 5 5 6 5 4 8 13 15 13 14 14 13 12 14 12 13 19 18 10 9 9
7 5 4 3 5 3 4 5 8 9 9 9 10 13 11 15 17 3 3 6 7 5 4 4 2 5 5 6 7 7 4 5 5 6 6 9 9 12 13 11 11 10 7
8 7 5 3 2 2 3 5 7 11 10 8 9 11 6 10 8 8 6 7 9 3 8 8 6 5 6 4 3 3 2 1 3 4 4 2 5 7 6 4 4 6 7
6 7 6 3 2 3 3 4 5 10 10 10 10 9 5 6 2 6 5 15 11 9 7 5 4 5 5 6 1 4 3 3 1 1 3 3 5 6 8 5 5 5 4
6 6 6 3 3 5 4 4 5 9 11 9 12 11 9 6 4 2 2 1 2 7 3 5 6 6 5 5 9 7 5 4 3 3 6 10 8 7 5 6 8 5 2
5 4 4 2 5 4 5 6 5 6 7 7 10 11 8 2 5 4 4 3 4 5 4 5 6 5 5 4 3 4 3 6 6 6 3 4 5 4 5 5 4 2 3
5 4 3 3 6 5 6 6 3 6 7 7 8 10 6 2 4 7 4 4 4 4 4 4 4 5 5 3 3 5 4 3 1 1 2 2 2 2 2 1 4 3 3
5 3 2 2 6 5 5 4 3 3 5 7 8 8 4 4 1 3 4 8 7 11 12 10 7 4 7 5 4 5 5 4 8 2 0 2 2 3 4 2 2 3 3
Wind_Direction
50 38 51 104 131 159 172 164 166 173 169 180 189 193 226 236 244 179 184 187 188 188 188 193 192 186 200 189 201 199 200 220 218 194 271 249 232 231 235 236 225 236 206
72 47 38 75 136 171 180 174 170 165 174 179 191 203 209 225 213 232 178 184 189 189 193 195 198 193 199 197 200 196 198 209 184 176 146 253 308 246 236 237 243 231 227
107 86 51 13 8 195 191 187 174 175 180 181 174 177 196 227 237 227 187 197 189 190 195 201 196 201 190 198 183 181 179 198 220 191 152 219 229 219 240 228 226 225 200
122 108 77 24 360 348 213 184 189 178 189 182 187 189 204 216 222 226 221 185 195 195 196 196 193 193 207 210 199 187 179 152 198 224 219 231 146 168 323 325 210 189 220
125 122 129 117 36 20 27 136 163 188 214 187 200 209 216 225 223 209 214 215 193 196 198 196 200 208 207 212 191 184 201 193 170 185 158 228 235 228 182 280 311 332 247
134 143 156 139 137 86 82 168 208 231 223 221 201 214 228 230 228 232 226 218 210 199 197 195 197 207 200 189 202 195 198 204 201 202 195 202 204 207 181 212 247 231 280
144 156 149 151 153 136 147 157 180 232 234 233 227 221 224 233 234 235 232 237 221 213 211 199 198 200 206 202 190 203 208 203 206 202 221 224 221 184 182 173 231 235 278
122 111 139 142 138 162 179 200 207 216 209 214 217 217 228 231 238 236 232 240 234 232 216 209 206 204 205 203 203 197 207 203 204 206 202 208 218 196 195 190 177 275 253
98 80 69 61 45 33 16 351 340 301 263 219 214 212 209 223 231 230 240 239 241 240 226 212 215 209 203 207 204 206 204 203 203 208 210 208 221 195 198 213 189 218 245
80 71 67 58 43 43 24 19 5 345 323 300 273 252 227 216 222 229 231 235 244 241 243 237 223 224 211 203 203 208 209 203 204 209 210 214 210 215 211 213 206 204 218
77 67 61 49 50 38 20 8 1 348 330 321 287 275 263 250 219 217 225 228 242 245 240 244 244 231 216 216 200 199 205 212 208 204 209 212 213 218 222 217 208 219 195
86 80 81 71 53 40 21 5 347 336 332 325 330 316 309 292 252 238 226 222 232 241 255 252 252 133 77 47 55 41 314 228 222 220 213 220 210 215 214 221 218 216 212
98 95 70 62 55 38 18 355 337 325 324 323 318 305 289 278 272 254 252 254 234 229 232 249 255 170 159 136 36 343 287 258 243 228 215 210 209 217 215 214 226 221 215
81 85 75 67 49 24 6 353 332 319 316 317 313 304 291 278 267 267 256 245 241 244 222 208 187 167 152 156 107 247 261 248 237 232 224 208 211 219 214 212 219 219 217
90 86 91 75 46 23 7 343 319 317 316 310 307 309 307 304 304 293 269 235 230 236 229 206 185 189 181 195 192 200 210 231 235 225 210 247 249 225 223 210 219 209 217
91 82 78 65 60 36 342 323 313 309 319 313 309 315 325 322 315 302 273 235 231 231 225 219 179 188 214 215 210 196 221 227 224 222 216 172 215 253 238 220 213 205 208
86 85 78 43 46 13 335 315 305 304 310 309 318 319 321 318 314 310 297 236 225 219 217 220 190 196 204 193 204 201 208 213 222 230 228 232 214 207 254 258 229 213 207
102 102 100 57 54 16 345 326 315 301 304 321 329 324 312 310 305 308 305 283 235 231 229 234 216 187 199 197 202 205 214 221 226 241 266 252 239 210 238 261 229 226 223
140 149 160 147 88 13 337 329 317 308 325 326 337 325 320 315 310 291 271 300 304 266 249 224 229 219 177 178 201 194 204 215 222 221 223 229 249 244 223 224 205 214 225
142 152 142 114 82 354 335 330 316 313 328 326 322 318 322 312 321 12 35 325 326 290 281 238 162 107 159 159 195 172 182 199 219 219 198 219 209 196 203 200 203 206 192
151 158 142 130 139 268 335 332 320 337 322 307 295 287 278 314 8 19 17 6 346 134 72 66 51 58 51 60 222 259 89 69 199 200 170 200 172 183 206 215 169 186 151
152 160 138 143 175 259 281 317 316 296 317 314 307 309 299 281 61 351 358 35 4 73 79 92 100 83 59 15 130 83 62 11 274 129 127 123 127 101 87 77 121 151 144
167 137 140 158 243 251 242 289 282 300 312 317 316 319 312 323 116 222 327 108 351 109 70 77 80 74 64 57 67 68 54 56 72 46 107 118 121 118 104 112 130 125 136
118 126 137 275 284 267 275 243 282 299 298 313 319 315 315 338 42 37 15 13 38 45 60 73 82 73 66 44 15 79 73 75 79 109 107 126 136 134 113 121 135 180 196
134 167 194 261 287 331 289 264 248 299 312 321 315 335 338 80 71 65 10 14 48 354 89 92 87 91 67 55 34 35 68 38 65 192 130 152 148 145 147 140 154 182 183
145 156 222 274 281 292 304 274 276 294 347 322 331 341 332 18 23 108 114 48 38 25 35 38 90 59 96 136 142 76 51 40 9 72 185 215 196 159 165 168 198 139 112